Zurück zum Katalog

DMSP 5D-2 F13 DEB

AktivSSO
NORAD 42263·DEBRIS·🇺🇸 United States

Gestartet Mar 24, 1995 von Vandenberg Space Force Base

Loading…

Nächste Überflüge (nächste 24 Stunden)

TLE

AktuellSource: Space-Track

Epoche: Sep 14, 2026, 12:33 UTC

1 42263U 95015GD  26257.52326740  .00001453  00000-0  96121-3 0  9993
2 42263  98.7338 106.3442 0107827 134.3501 226.6563 14.00270245580704

Verfolge DMSP 5D-2 F13 DEB in Echtzeit mit AllMySat

Download on the App Store